[[{"header":{"parameterUnit":"m.s-1","parameterCategory":1,"la1":30.2991,"la2":30.254,"lo1":-89.0895,"lo2":-89.0444,"dy":0.0017,"dx":0.0017,"nx":28,"ny":28,"refTime":"2025-08-25T03:00:00:Z","depth":0,"parameterNumber":2,"parameterNumberName":"U-component_of_WINDS"},"data":[0,0,0,0,0,0,0,0,0,0,0,0,0,0,0,0,0,0,0,0,0,0,0,0,0,0,0,0,0,0,0,0,0,0,0,0,0,0,0,0,0,0,0,0,0,0,0,0,0,0,0,0,0,0,0,0,0,0,-2.1453,-2.1453,0,-2.1414,-2.1413,-2.1413,-2.1325,-2.1323,-2.1322,-2.132,-2.1281,-2.1282,-2.1283,0,0,0,0,0,0,0,0,0,0,0,0,0,-2.1456,-2.1456,-2.1453,-2.1453,-2.1452,-2.1414,-2.1413,-2.1413,-2.1325,-2.1323,-2.1321,-2.1319,-2.1281,-2.1282,-2.1283,0,0,0,0,0,0,0,0,0,0,0,0,0,-2.1439,-2.1456,-2.1453,-2.1404,-2.1399,-2.1414,-2.1413,-2.1413,-2.1326,-2.1323,-2.1321,-2.1318,-2.1281,-2.1282,-2.1283,-2.1343,0,0,-2.1286,-2.1286,0,0,0,0,0,0,0,0,-2.144,-2.1439,-2.1412,-2.1407,-2.1402,-2.1372,-2.14,-2.1389,-2.1327,-2.1354,-2.132,-2.1317,-2.1314,-2.1312,-2.131,-2.1341,-2.1339,-2.1286,-2.1286,-2.1287,-2.1287,0,0,0,0,0,0,0,-2.1442,-2.1441,-2.1438,-2.1411,-2.1406,-2.1385,-2.1379,-2.1398,-2.1349,-2.1351,-2.1345,-2.1341,-2.1311,-2.131,-2.1309,-2.1339,-2.1286,-2.1287,-2.1287,-2.1288,-2.1418,-2.142,0,0,0,0,0,0,-2.145,-2.1442,-2.1439,-2.1436,-2.1415,-2.1387,-2.1381,-2.1384,-2.1349,-2.1341,-2.1344,-2.1337,-2.1309,-2.1308,-2.1307,-2.1375,-2.1287,-2.1288,-2.1288,-2.1415,-2.1418,-2.1421,0,0,0,0,0,0,-2.145,-2.145,-2.144,-2.1438,-2.1435,-2.139,-2.1394,-2.1385,-2.1384,-2.1343,-2.1334,-2.1351,-2.1307,-2.1306,-2.1335,-2.1372,-2.1288,-2.1289,-2.1412,-2.1416,-2.142,-2.1511,0,0,0,0,0,0,-2.145,-2.1451,-2.1472,-2.1439,-2.1435,-2.1468,-2.1396,-2.1386,-2.1385,-2.1377,-2.1348,-2.1341,-2.1305,-2.1334,-2.1336,-2.1372,-2.129,-2.1408,-2.1413,-2.1419,-2.1505,-2.1518,-2.153,0,0,0,0,0,-2.1451,-2.15,-2.1474,-2.1474,-2.1461,-2.147,-2.1468,-2.1426,-2.1389,-2.141,-2.1385,-2.1342,-2.1369,-2.1337,-2.1339,-2.1376,-2.1405,-2.1412,-2.1418,-2.1499,-2.1516,-2.1529,0,0,0,0,0,0,-2.1539,-2.1494,-2.1465,-2.1504,-2.1492,-2.1455,-2.1481,-2.1444,-2.1442,-2.1434,-2.1382,-2.1376,-2.1413,-2.1397,-2.1364,-2.1433,-2.138,-2.1387,-2.1441,-2.1456,-2.1469,-2.1471,-2.1291,0,0,0,0,0,-2.1564,-2.1574,-2.1535,-2.1573,-2.1568,-2.1527,-2.1529,-2.1497,-2.1482,-2.1476,-2.1453,-2.144,-2.1446,-2.1451,-2.1454,-2.1503,-2.1495,-2.153,-2.1542,-2.1553,-2.1559,-2.1584,-2.1599,-2.1443,-2.1443,-2.1442,0,0,-2.1613,-2.159,-2.16,-2.1591,-2.1577,-2.159,-2.1522,-2.1539,-2.1548,-2.1479,-2.1504,-2.1487,-2.147,-2.151,-2.1526,-2.1498,-2.1601,-2.1561,-2.157,-2.157,-2.1592,-2.1607,-2.162,-2.1447,-2.1446,-2.1446,0,0,-2.171,-2.1694,-2.1724,-2.1712,-2.1693,-2.1665,-2.1672,-2.1642,-2.1627,-2.1652,-2.1601,-2.1612,-2.1623,-2.1613,-2.1609,-2.1705,-2.1665,-2.1708,-2.1772,-2.1798,-2.181,-2.1821,-2.1854,-2.1867,-2.1715,-2.1715,-2.1715,0,-2.1774,-2.179,-2.1745,-2.1764,-2.1762,-2.1701,-2.1732,-2.1723,-2.1705,-2.1706,-2.1675,-2.1688,-2.1672,-2.1708,-2.1732,-2.1732,-2.1739,-2.171,-2.1812,-2.1822,-2.1831,-2.1863,-2.1876,-2.172,-2.1719,-2.1719,-2.1718,0,-2.187,-2.1883,-2.191,-2.1894,-2.1895,-2.1921,-2.188,-2.1887,-2.1856,-2.1832,-2.1859,-2.1838,-2.1836,-2.1843,-2.1813,-2.1875,-2.1859,-2.1821,-2.1766,-2.1852,-2.1881,-2.1893,-2.1727,-2.1725,-2.1724,-2.1723,0,0,-2.2019,-2.1979,-2.199,-2.1982,-2.1957,-2.1966,-2.199,-2.1988,-2.1994,-2.1986,-2.2004,-2.2016,-2.1981,-2.1977,-2.1946,-2.1969,-2.2045,-2.1928,-2.1927,-2.195,-2.2113,-2.214,-2.2155,-2.202,-2.2022,-2.2024,-2.2114,0,-2.2109,-2.2145,-2.2106,-2.215,-2.2162,-2.2105,-2.2126,-2.2113,-2.2092,-2.2099,-2.2076,-2.2085,-2.2039,-2.2036,-2.2056,-2.2032,-2.2077,-2.2025,-2.2036,-2.2037,-2.2041,-2.217,-2.2199,-2.2285,-2.2125,-2.2127,-2.2128,0,-2.2218,-2.2214,-2.226,-2.2232,-2.2236,-2.2255,-2.225,-2.2257,-2.2243,-2.2226,-2.2223,-2.2186,-2.2208,-2.2156,-2.2186,-2.2152,-2.2155,-2.2144,-2.2146,-2.2144,-2.2087,-2.217,-2.2311,-2.2324,-2.2146,-2.2144,-2.2143,0,-2.2321,-2.2327,-2.2355,-2.2351,-2.232,-2.2335,-2.2323,-2.2306,-2.2307,-2.2304,-2.2304,-2.2304,-2.2304,-2.2305,-2.2269,-2.2235,-2.2304,-2.2249,-2.229,-2.2291,-2.2305,-2.2305,-2.2447,-2.231,-2.231,-2.231,-2.231,0,-2.2424,-2.2454,-2.2401,-2.2418,-2.2451,-2.2406,-2.244,-2.2423,-2.2408,-2.2422,-2.2374,-2.2388,-2.234,-2.235,-2.2322,-2.2351,-2.2352,-2.2339,-2.2331,-2.2342,-2.2344,-2.2342,-2.2335,-2.2313,-2.2312,-2.2312,-2.2311,0,-2.2543,-2.2509,-2.2536,-2.2505,-2.2498,-2.2524,-2.2498,-2.2513,-2.249,-2.2508,-2.2509,-2.2473,-2.2481,-2.2446,-2.2449,-2.2431,-2.2474,-2.2457,-2.2478,-2.2472,-2.2515,-2.2511,-2.266,-2.2677,-2.2531,-2.2533,-2.2534,0,-2.2611,-2.2632,-2.2604,-2.261,-2.26,-2.261,-2.2611,-2.2569,-2.2573,-2.2559,-2.2576,-2.2581,-2.2582,-2.2599,-2.2573,-2.2576,-2.2557,-2.261,-2.2557,-2.2568,-2.2557,-2.2555,-2.2557,-2.262,-2.2622,-2.2623,-2.2624,0,-2.2734,-2.2716,-2.2719,-2.2717,-2.272,-2.2717,-2.271,-2.2718,-2.2673,-2.268,-2.2688,-2.2689,-2.2692,-2.2698,-2.2695,-2.2684,-2.2647,-2.2641,-2.2651,-2.2662,-2.2673,-2.2666,-2.2506,-2.2637,-2.2636,-2.2635,-2.2634,-2.2634,-2.2828,-2.2845,-2.2828,-2.2834,-2.2825,-2.282,-2.2833,-2.2811,-2.2817,-2.2816,-2.2791,-2.2805,-2.2791,-2.2783,-2.2776,-2.2786,-2.2762,-2.2776,-2.2779,-2.2783,-2.279,-2.2673,-2.2786,-2.2786,-2.2785,-2.2785,-2.2785,0,-2.2947,-2.2934,-2.294,-2.2932,-2.2937,-2.2903,-2.2894,-2.2901,-2.2913,-2.2903,-2.2906,-2.2916,-2.2921,-2.2897,-2.2899,-2.2912,-2.2896,-2.2914,-2.2912,-2.291,-2.2812,-2.2803,-2.2928,-2.2928,-2.2928,-2.2928,-2.2928,-2.2928,-2.301,-2.3037,-2.3017,-2.304,-2.3026,-2.3038,-2.3036,-2.3032,-2.3024,-2.3037,-2.3042,-2.3026,-2.301,-2.3012,-2.3016,-2.3008,-2.3011,-2.3035,-2.3022,-2.2931,-2.2917,-2.2903,-2.2895,-2.3037,-2.3037,-2.3119,-2.312,-2.3121]},{"header":{"parameterUnit":"m.s-1","parameterCategory":1,"la1":30.2991,"la2":30.254,"lo1":-89.0895,"lo2":-89.0444,"dy":0.0017,"dx":0.0017,"nx":28,"ny":28,"refTime":"2025-08-25T03:00:00:Z","depth":0,"parameterNumber":3,"parameterNumberName":"V-component_of_WINDS"},"data":[0,0,0,0,0,0,0,0,0,0,0,0,0,0,0,0,0,0,0,0,0,0,0,0,0,0,0,0,0,0,0,0,0,0,0,0,0,0,0,0,0,0,0,0,0,0,0,0,0,0,0,0,0,0,0,0,0,0,1.9495,1.9495,0,1.9477,1.9477,1.9476,1.9519,1.952,1.9522,1.9523,1.9497,1.9495,1.9493,0,0,0,0,0,0,0,0,0,0,0,0,0,1.956,1.9559,1.9495,1.9495,1.9494,1.9477,1.9477,1.9476,1.9519,1.952,1.9522,1.9523,1.9498,1.9495,1.9493,0,0,0,0,0,0,0,0,0,0,0,0,0,1.9536,1.9558,1.9495,1.9513,1.9515,1.9477,1.9477,1.9476,1.9518,1.952,1.9522,1.9524,1.9499,1.9496,1.9493,1.9434,0,0,1.9484,1.9483,0,0,0,0,0,0,0,0,1.9537,1.9533,1.9511,1.9512,1.9514,1.9502,1.949,1.9462,1.9518,1.9517,1.9523,1.9525,1.9497,1.9494,1.9486,1.9432,1.9431,1.9484,1.9482,1.9481,1.948,0,0,0,0,0,0,0,1.9539,1.9534,1.9487,1.9511,1.9512,1.9521,1.952,1.9485,1.9495,1.9517,1.952,1.9518,1.9498,1.9489,1.9486,1.9431,1.9484,1.9481,1.9479,1.9478,1.9328,1.9325,0,0,0,0,0,0,1.9539,1.9535,1.9488,1.9487,1.9531,1.9518,1.9517,1.9504,1.9496,1.9497,1.9516,1.952,1.9493,1.9489,1.9485,1.9414,1.9481,1.9478,1.9476,1.933,1.9327,1.9325,0,0,0,0,0,0,1.954,1.9534,1.9489,1.9512,1.9507,1.9515,1.95,1.9502,1.9493,1.9495,1.9496,1.9505,1.9494,1.9489,1.9447,1.9414,1.9476,1.9474,1.9332,1.9329,1.9326,1.9273,0,0,0,0,0,0,1.9542,1.9534,1.9513,1.9511,1.9506,1.9452,1.9498,1.95,1.9489,1.9494,1.9485,1.9486,1.9495,1.9451,1.9444,1.9411,1.9471,1.9335,1.9331,1.9327,1.9277,1.9268,1.926,0,0,0,0,0,1.9544,1.9497,1.9512,1.9506,1.9479,1.945,1.9447,1.9461,1.9486,1.9464,1.9465,1.9486,1.942,1.9446,1.9438,1.9404,1.9337,1.9332,1.9327,1.9281,1.927,1.926,0,0,0,0,0,0,1.9492,1.9497,1.9513,1.9465,1.9457,1.9457,1.9429,1.9448,1.9431,1.9436,1.9452,1.945,1.9403,1.94,1.943,1.9347,1.9382,1.9376,1.935,1.9339,1.9331,1.9331,1.9469,0,0,0,0,0,1.9475,1.9453,1.9458,1.9415,1.9411,1.9421,1.9409,1.9421,1.9412,1.9408,1.9406,1.9395,1.9372,1.9356,1.9335,1.9278,1.9276,1.9251,1.9243,1.9236,1.9228,1.9198,1.9186,1.9308,1.9308,1.9308,0,0,1.9439,1.944,1.9424,1.9405,1.94,1.9375,1.9417,1.9389,1.9369,1.9403,1.9363,1.9362,1.935,1.9301,1.9278,1.9296,1.9195,1.9229,1.9223,1.922,1.9191,1.918,1.9169,1.9305,1.9305,1.9306,0,0,1.9361,1.936,1.9324,1.9319,1.9313,1.932,1.9312,1.931,1.9311,1.9272,1.9296,1.9273,1.9233,1.9224,1.9214,1.9135,1.9153,1.9128,1.9081,1.9051,1.9041,1.9032,1.9002,1.8992,1.9121,1.9121,1.9121,0,1.9316,1.9282,1.9302,1.9272,1.9262,1.9295,1.9258,1.9251,1.9237,1.9228,1.925,1.9201,1.9195,1.9144,1.9125,1.9117,1.9105,1.9127,1.9041,1.9033,1.9025,1.8997,1.8986,1.9118,1.9118,1.9119,1.9119,0,1.9226,1.9202,1.9173,1.9162,1.9149,1.9115,1.9129,1.9113,1.9127,1.9132,1.9092,1.9087,1.9066,1.9055,1.9067,1.9005,1.9016,1.9039,1.9075,1.901,1.8983,1.8973,1.9114,1.9115,1.9116,1.9116,0,0,1.9111,1.9114,1.9103,1.9098,1.9094,1.9075,1.9043,1.9024,1.901,1.9,1.8971,1.8938,1.896,1.8949,1.8961,1.8935,1.8871,1.8961,1.8961,1.8942,1.88,1.8781,1.8768,1.8884,1.8882,1.8881,1.88,0,1.9032,1.8979,1.8998,1.8943,1.8919,1.8952,1.8923,1.8917,1.8921,1.8901,1.8905,1.8881,1.8912,1.8906,1.8882,1.8883,1.8842,1.889,1.8855,1.8854,1.8854,1.8754,1.8733,1.8658,1.879,1.8788,1.8787,0,1.8933,1.8921,1.8864,1.8866,1.8857,1.8831,1.8816,1.8797,1.8791,1.8796,1.8785,1.8802,1.8769,1.8808,1.8761,1.8794,1.8781,1.878,1.8777,1.8772,1.8814,1.8744,1.8634,1.8621,1.8771,1.8773,1.8774,0,1.8852,1.8822,1.8785,1.878,1.8781,1.8762,1.8761,1.8757,1.8745,1.8732,1.8724,1.8706,1.8695,1.868,1.8692,1.8719,1.8643,1.8683,1.8644,1.8643,1.8623,1.8623,1.8507,1.8619,1.862,1.862,1.862,0,1.876,1.8723,1.8748,1.8724,1.8684,1.8706,1.8665,1.8668,1.8664,1.864,1.8667,1.8644,1.8663,1.864,1.865,1.8609,1.8604,1.8605,1.8608,1.8601,1.8601,1.8591,1.8595,1.8617,1.8618,1.8618,1.8619,0,1.8661,1.8677,1.8638,1.8643,1.8644,1.8614,1.8617,1.8595,1.8603,1.8572,1.8566,1.8577,1.8553,1.8564,1.8538,1.8544,1.8491,1.8501,1.8493,1.8495,1.8455,1.8457,1.8325,1.8308,1.8434,1.8433,1.8432,0,1.86,1.8573,1.8577,1.8564,1.8563,1.8541,1.853,1.8551,1.8538,1.853,1.8508,1.8486,1.847,1.8429,1.8433,1.8413,1.8422,1.8377,1.8418,1.8413,1.8418,1.8418,1.8415,1.8367,1.8366,1.8365,1.8364,0,1.849,1.85,1.8484,1.8471,1.8457,1.8447,1.8439,1.8427,1.8448,1.8431,1.8408,1.8396,1.8371,1.8348,1.8331,1.8328,1.8348,1.8351,1.8341,1.8332,1.8328,1.8328,1.8468,1.8353,1.8354,1.8355,1.8356,1.8356,1.8406,1.8384,1.8384,1.8365,1.8362,1.8355,1.8334,1.834,1.8322,1.8305,1.8318,1.829,1.8285,1.8265,1.8259,1.8236,1.8254,1.8239,1.8235,1.823,1.8224,1.8335,1.8233,1.8234,1.8234,1.8234,1.8235,0,1.8296,1.8298,1.8281,1.827,1.8255,1.828,1.8273,1.8258,1.8234,1.8229,1.8213,1.8186,1.8165,1.8169,1.8149,1.813,1.8139,1.8124,1.8124,1.8123,1.821,1.822,1.8117,1.8117,1.8117,1.8117,1.8117,1.8117,1.8236,1.8199,1.8209,1.8171,1.8173,1.8147,1.8141,1.8134,1.813,1.8099,1.8083,1.8087,1.8085,1.8066,1.8047,1.8049,1.8039,1.802,1.8024,1.8105,1.8117,1.8128,1.8137,1.8018,1.8018,1.7939,1.7938,1.7938]}]]